Location: Castiglione Fibocchi
(43.5333°N, 11.7667°E)
Time: 16:28:37
(UTC+00:00)

IRS-1D - Pass Details

Date: 15 August 2020
Orbit: 740 x 816 km, 98.6° (Epoch: 18 September)

Event Time Altitude Azimuth Distance (km) Brightness Sun altitude
Rises 01:17:31 0° 16° (NNE) 3,244 7.9 -26.3°
Reaches altitude 10° 01:19:50 10° 19° (NNE) 2,324 6.9 -26.1°
Maximum altitude 01:24:56 68° 102° (ESE) 843 3.7 -25.6°
Enters shadow 01:25:40 60° 148° (SSE) 898 3.6 -25.5°
